[[{"header":{"parameterUnit":"m.s-1","parameterCategory":1,"la1":30.2991,"la2":30.254,"lo1":-89.0895,"lo2":-89.0444,"dy":0.0017,"dx":0.0017,"nx":28,"ny":28,"refTime":"2025-07-07T09:00:00:Z","depth":0,"parameterNumber":2,"parameterNumberName":"U-component_of_WINDS"},"data":[0,0,0,0,0,0,0,0,0,0,0,0,0,0,0,0,0,0,0,0,0,0,0,0,0,0,0,0,0,0,0,0,0,0,0,0,0,0,0,0,0,0,0,0,0,0,0,0,0,0,0,0,0,0,0,0,0,0,1.7284,1.7286,0,1.7452,1.7454,1.7456,1.7512,1.7511,1.7511,1.751,1.7687,1.7692,1.7697,0,0,0,0,0,0,0,0,0,0,0,0,0,1.7015,1.7019,1.7284,1.7286,1.7288,1.7452,1.7454,1.7457,1.7512,1.7511,1.751,1.751,1.7685,1.7691,1.7698,0,0,0,0,0,0,0,0,0,0,0,0,0,1.7152,1.7021,1.7284,1.7336,1.7342,1.7451,1.7454,1.7457,1.7512,1.7511,1.751,1.7509,1.7683,1.7691,1.7699,1.777,0,0,1.7723,1.7727,0,0,0,0,0,0,0,0,1.7144,1.7162,1.7326,1.7332,1.7339,1.746,1.7424,1.7562,1.7513,1.7448,1.751,1.7509,1.7612,1.7626,1.766,1.7778,1.7786,1.7724,1.7729,1.7732,1.7735,0,0,0,0,0,0,0,1.7135,1.7155,1.7351,1.7328,1.7337,1.7352,1.737,1.7451,1.7534,1.7453,1.7458,1.7477,1.7616,1.7652,1.7665,1.7788,1.7724,1.7731,1.7736,1.7739,1.7973,1.7975,0,0,0,0,0,0,1.7116,1.7147,1.7345,1.7356,1.7237,1.7357,1.7378,1.7423,1.7534,1.7549,1.7478,1.7479,1.7639,1.7655,1.7671,1.7762,1.7732,1.774,1.7744,1.7972,1.7974,1.7975,0,0,0,0,0,0,1.711,1.7133,1.7339,1.7253,1.728,1.7363,1.7413,1.7426,1.7463,1.7552,1.7567,1.7499,1.7639,1.766,1.7745,1.7769,1.7743,1.7751,1.797,1.7973,1.7975,1.7944,0,0,0,0,0,0,1.7102,1.7131,1.7158,1.7253,1.7284,1.7408,1.7414,1.743,1.7476,1.7479,1.7576,1.7591,1.764,1.7732,1.7753,1.778,1.7757,1.7969,1.7971,1.7974,1.7943,1.7945,1.7946,0,0,0,0,0,1.7092,1.7143,1.7159,1.7182,1.732,1.7409,1.7427,1.7481,1.7478,1.7506,1.7563,1.7588,1.7763,1.774,1.7764,1.7794,1.7967,1.7971,1.7974,1.7942,1.7944,1.7946,0,0,0,0,0,0,1.7051,1.7157,1.7175,1.7258,1.7324,1.7418,1.7456,1.7481,1.7551,1.7551,1.7616,1.7637,1.7717,1.7764,1.7737,1.7869,1.7867,1.7874,1.7835,1.7837,1.7839,1.7826,1.7764,0,0,0,0,0,1.7051,1.7114,1.7204,1.7268,1.73,1.7372,1.7413,1.7449,1.752,1.7549,1.7612,1.7681,1.7752,1.7797,1.7867,1.795,1.7972,1.7982,1.7983,1.7984,1.799,1.8038,1.8043,1.7986,1.7986,1.7986,0,0,1.7053,1.7119,1.7154,1.7262,1.7317,1.7381,1.7395,1.7463,1.7512,1.756,1.7643,1.7692,1.7774,1.7857,1.7898,1.7899,1.8011,1.7988,1.7988,1.7994,1.8041,1.8047,1.8051,1.7988,1.7987,1.7987,0,0,1.7089,1.7145,1.7205,1.7259,1.7342,1.7389,1.7403,1.7494,1.7528,1.7612,1.7649,1.7709,1.7829,1.7885,1.793,1.7986,1.8012,1.8008,1.8015,1.806,1.8065,1.8069,1.8089,1.8096,1.8013,1.8013,1.8013,0,1.7081,1.7178,1.7233,1.7298,1.7344,1.7389,1.745,1.7501,1.7603,1.7634,1.7634,1.7785,1.7844,1.7941,1.7955,1.799,1.8008,1.7997,1.806,1.8065,1.807,1.8089,1.8097,1.8012,1.8012,1.8013,1.8013,0,1.7164,1.7231,1.727,1.7365,1.7416,1.7479,1.7544,1.7589,1.762,1.7668,1.7753,1.7824,1.7909,1.7935,1.7967,1.8037,1.8036,1.8047,1.8046,1.8073,1.8093,1.8101,1.8011,1.8011,1.8012,1.8012,0,0,1.718,1.7303,1.7317,1.736,1.7454,1.7508,1.7573,1.7655,1.7692,1.7761,1.7818,1.7918,1.7928,1.7979,1.8017,1.8057,1.8097,1.8063,1.8066,1.8067,1.8179,1.817,1.8178,1.8114,1.8116,1.8117,1.8172,0,1.7228,1.7345,1.7396,1.749,1.7553,1.7596,1.7653,1.7717,1.7763,1.7824,1.7876,1.7946,1.7954,1.7985,1.8026,1.8083,1.812,1.808,1.8169,1.8171,1.8146,1.8188,1.8179,1.8228,1.818,1.8182,1.8183,0,1.73,1.7367,1.7467,1.7553,1.7581,1.7631,1.771,1.7767,1.7841,1.7872,1.7928,1.7964,1.8035,1.8029,1.8129,1.81,1.814,1.8173,1.8176,1.8187,1.8178,1.82,1.8244,1.8251,1.8195,1.8194,1.8193,0,1.73,1.7416,1.7491,1.7527,1.7629,1.7663,1.7708,1.7781,1.7826,1.7896,1.7926,1.8003,1.8045,1.8104,1.8161,1.8151,1.8255,1.8254,1.8283,1.8282,1.8303,1.8301,1.8355,1.8328,1.8328,1.8328,1.8328,0,1.7349,1.7408,1.7492,1.7538,1.7607,1.7665,1.7731,1.7779,1.7843,1.79,1.7942,1.7995,1.8066,1.8128,1.8173,1.8248,1.8267,1.8295,1.8306,1.8291,1.8287,1.8318,1.8316,1.833,1.833,1.8329,1.8329,0,1.7361,1.742,1.7504,1.7593,1.7617,1.7664,1.7741,1.7788,1.7835,1.7907,1.7927,1.8002,1.8078,1.8139,1.8238,1.8268,1.8347,1.836,1.8321,1.8327,1.8353,1.835,1.8428,1.8441,1.8406,1.8406,1.8406,0,1.7388,1.7435,1.7529,1.7569,1.7612,1.7677,1.7723,1.7782,1.7829,1.7916,1.7953,1.803,1.8096,1.8214,1.8278,1.8354,1.837,1.8392,1.8381,1.8365,1.837,1.8366,1.8371,1.8393,1.8393,1.8393,1.8393,0,1.743,1.7456,1.752,1.7595,1.7648,1.771,1.7773,1.7804,1.7875,1.7925,1.8001,1.8052,1.8152,1.8229,1.8311,1.8359,1.8388,1.8395,1.8406,1.8391,1.8367,1.838,1.8324,1.8393,1.8393,1.8393,1.8393,1.8393,1.745,1.7494,1.7566,1.7636,1.7689,1.7747,1.7795,1.7848,1.7912,1.7997,1.8029,1.8107,1.818,1.8294,1.8341,1.8404,1.8408,1.8423,1.8427,1.843,1.8428,1.8356,1.842,1.842,1.842,1.842,1.842,0,1.7494,1.7542,1.7606,1.7692,1.7747,1.7768,1.7839,1.7884,1.7952,1.8017,1.808,1.8168,1.8242,1.8312,1.839,1.8427,1.8442,1.8446,1.8444,1.8454,1.8421,1.8403,1.8432,1.8432,1.8432,1.8432,1.8432,1.8432,1.7523,1.7597,1.7632,1.7733,1.7782,1.7857,1.7896,1.795,1.8002,1.8097,1.8159,1.8203,1.8271,1.8354,1.8423,1.8442,1.8469,1.8468,1.8491,1.8458,1.8456,1.8454,1.8438,1.8474,1.8474,1.8519,1.8519,1.852]},{"header":{"parameterUnit":"m.s-1","parameterCategory":1,"la1":30.2991,"la2":30.254,"lo1":-89.0895,"lo2":-89.0444,"dy":0.0017,"dx":0.0017,"nx":28,"ny":28,"refTime":"2025-07-07T09:00:00:Z","depth":0,"parameterNumber":3,"parameterNumberName":"V-component_of_WINDS"},"data":[0,0,0,0,0,0,0,0,0,0,0,0,0,0,0,0,0,0,0,0,0,0,0,0,0,0,0,0,0,0,0,0,0,0,0,0,0,0,0,0,0,0,0,0,0,0,0,0,0,0,0,0,0,0,0,0,0,0,3.7965,3.7965,0,3.7948,3.7948,3.7948,3.7948,3.7948,3.7948,3.7948,3.7927,3.7927,3.7926,0,0,0,0,0,0,0,0,0,0,0,0,0,3.7993,3.7993,3.7965,3.7965,3.7965,3.7948,3.7948,3.7948,3.7948,3.7948,3.7948,3.7948,3.7928,3.7927,3.7926,0,0,0,0,0,0,0,0,0,0,0,0,0,3.7979,3.7993,3.7965,3.7963,3.7962,3.7948,3.7948,3.7948,3.7947,3.7948,3.7948,3.7948,3.7928,3.7927,3.7926,3.7912,0,0,3.7922,3.7922,0,0,0,0,0,0,0,0,3.798,3.7978,3.7963,3.7963,3.7962,3.795,3.7951,3.7936,3.7947,3.7953,3.7948,3.7949,3.7935,3.7933,3.7929,3.7911,3.7911,3.7922,3.7922,3.7921,3.7921,0,0,0,0,0,0,0,3.7981,3.7979,3.7958,3.7963,3.7962,3.7961,3.796,3.7948,3.7942,3.7952,3.7952,3.7951,3.7934,3.793,3.7929,3.791,3.7922,3.7921,3.7921,3.792,3.7881,3.788,0,0,0,0,0,0,3.7983,3.798,3.7959,3.7958,3.7972,3.796,3.7959,3.7954,3.7942,3.7941,3.795,3.7951,3.7932,3.793,3.7928,3.7911,3.7921,3.792,3.7919,3.7881,3.788,3.788,0,0,0,0,0,0,3.7984,3.7981,3.796,3.7969,3.7966,3.796,3.7954,3.7953,3.7949,3.7941,3.7939,3.7947,3.7932,3.7929,3.7916,3.7911,3.792,3.7919,3.7881,3.7881,3.788,3.7878,0,0,0,0,0,0,3.7984,3.7981,3.7977,3.7969,3.7966,3.7949,3.7954,3.7953,3.7948,3.7948,3.7937,3.7936,3.7932,3.7918,3.7915,3.7909,3.7918,3.7882,3.7881,3.788,3.7879,3.7877,3.7877,0,0,0,0,0,3.7985,3.7976,3.7977,3.7974,3.796,3.7949,3.7947,3.7944,3.7947,3.7942,3.7937,3.7936,3.7912,3.7917,3.7914,3.7907,3.7882,3.7881,3.7881,3.7879,3.7878,3.7877,0,0,0,0,0,0,3.7982,3.7975,3.7975,3.7964,3.7957,3.7949,3.7943,3.7943,3.7934,3.7935,3.793,3.7928,3.7915,3.791,3.7915,3.7893,3.7897,3.7896,3.7897,3.7896,3.7895,3.7896,3.7917,0,0,0,0,0,3.7981,3.7974,3.7967,3.7957,3.7954,3.7949,3.7944,3.7942,3.7935,3.7932,3.7926,3.7917,3.7908,3.7902,3.7892,3.7878,3.7875,3.7872,3.7871,3.787,3.7868,3.786,3.7858,3.7877,3.7877,3.7877,0,0,3.7976,3.7971,3.7967,3.7956,3.7951,3.7943,3.7947,3.7938,3.7931,3.793,3.7918,3.7913,3.7903,3.789,3.7883,3.7885,3.7863,3.7869,3.7868,3.7867,3.7859,3.7857,3.7856,3.7877,3.7877,3.7877,0,0,3.7964,3.796,3.7951,3.7946,3.7939,3.7936,3.7934,3.7926,3.7923,3.7911,3.791,3.7902,3.7886,3.7879,3.7873,3.786,3.7858,3.7857,3.7851,3.7843,3.7841,3.784,3.7834,3.7833,3.7855,3.7855,3.7855,0,3.7959,3.7948,3.7946,3.7938,3.7933,3.7933,3.7924,3.7919,3.7908,3.7904,3.7907,3.7887,3.788,3.7865,3.7862,3.7857,3.7854,3.7857,3.7842,3.784,3.7839,3.7834,3.7832,3.7855,3.7855,3.7855,3.7855,0,3.7942,3.7934,3.7928,3.7919,3.7914,3.7905,3.7901,3.7895,3.7894,3.789,3.7878,3.7871,3.786,3.7856,3.7854,3.784,3.7842,3.7843,3.7847,3.7837,3.7832,3.783,3.7855,3.7855,3.7855,3.7855,0,0,3.7927,3.7919,3.7916,3.7912,3.7904,3.7898,3.7888,3.7879,3.7874,3.7867,3.7858,3.7845,3.7847,3.784,3.7838,3.7831,3.782,3.7833,3.7833,3.783,3.7804,3.7802,3.78,3.782,3.7819,3.7819,3.7804,0,3.7914,3.7899,3.7897,3.7883,3.7876,3.7876,3.7868,3.7861,3.7858,3.785,3.7846,3.7836,3.7839,3.7835,3.7828,3.7823,3.7814,3.7824,3.7811,3.781,3.7813,3.7798,3.7796,3.7783,3.7802,3.7802,3.7802,0,3.7896,3.789,3.7876,3.7869,3.7866,3.7859,3.785,3.7843,3.7836,3.7834,3.7827,3.7826,3.7815,3.782,3.7805,3.7811,3.7806,3.7802,3.7802,3.78,3.7805,3.7795,3.7779,3.7776,3.7799,3.7799,3.7799,0,3.7886,3.7874,3.7864,3.786,3.7853,3.7848,3.7844,3.7837,3.7832,3.7824,3.782,3.7811,3.7806,3.7798,3.7794,3.7798,3.7779,3.7783,3.7776,3.7776,3.7771,3.7771,3.7753,3.7769,3.7769,3.7769,3.7769,0,3.7871,3.7862,3.7859,3.7853,3.7843,3.7841,3.783,3.7827,3.7821,3.7813,3.7812,3.7805,3.78,3.7791,3.7788,3.7776,3.7773,3.777,3.7769,3.777,3.7771,3.7766,3.7767,3.7768,3.7768,3.7768,3.7768,0,3.7858,3.7856,3.7845,3.7839,3.7837,3.7829,3.7824,3.7817,3.7814,3.7804,3.7802,3.7796,3.7786,3.7782,3.7769,3.7766,3.7752,3.7752,3.7755,3.7755,3.7747,3.7748,3.7725,3.7722,3.774,3.774,3.774,0,3.7848,3.7841,3.7835,3.7831,3.7827,3.782,3.7815,3.7812,3.7807,3.7798,3.7793,3.7783,3.7775,3.7759,3.7753,3.7743,3.7742,3.7735,3.7741,3.7742,3.7742,3.7742,3.7741,3.7734,3.7734,3.7734,3.7733,0,3.7831,3.783,3.7824,3.7817,3.7811,3.7805,3.7799,3.7795,3.7792,3.7786,3.7776,3.777,3.7758,3.7748,3.7738,3.7733,3.7732,3.7732,3.773,3.773,3.7732,3.773,3.7752,3.7732,3.7732,3.7732,3.7732,3.7732,3.7819,3.7813,3.7808,3.78,3.7796,3.7791,3.7784,3.7781,3.7773,3.7764,3.7763,3.7753,3.7745,3.7732,3.7727,3.7718,3.772,3.7716,3.7715,3.7714,3.7714,3.7734,3.7716,3.7716,3.7716,3.7716,3.7716,0,3.7801,3.7798,3.7792,3.7784,3.7778,3.778,3.7773,3.7768,3.7759,3.7753,3.7746,3.7735,3.7725,3.7719,3.771,3.7704,3.7703,3.7701,3.7701,3.77,3.7713,3.7716,3.7702,3.7702,3.7702,3.7702,3.7702,3.7702,3.7791,3.7782,3.778,3.7768,3.7765,3.7756,3.7752,3.7747,3.7742,3.773,3.7723,3.772,3.7713,3.7703,3.7694,3.7693,3.7689,3.7687,3.7685,3.7697,3.7699,3.77,3.7703,3.7686,3.7686,3.7672,3.7672,3.7672]}]]